Other Public Products
Issued by NWS Grand Forks, ND

Home | Current Version | Previous Version | Graphics & Text | Print | Product List | Glossary On
Versions: 1 2 3 4 5 6 7 8 9 10 11 12 13 14 15 16 17 18 19 20 21 22 23 24 25 26 27 28 29 30 31 32 33 34 35 36 37 38 39 40 41 42 43 44 45 46 47 48 49 50
000
FPUS83 KFGF 210010
OPUFGF
PRAIRIE TO PINES WEATHER ROUNDUP
NATIONAL WEATHER SERVICE EASTERN NORTH DAKOTA/GRAND FORKS ND
700 PM CDT SAT SEP 20 2014

 **SATELLITE DATA USED TO AUGMENT SKY COVER AT AUTOMATED STATIONS**
 *****  WEATHER ACROSS EASTERN NORTH DAKOTA  *****

CITY           SKY/WX    TMP DP  RH WIND       PRES   REMARKS
GRAND FORKS    MOCLDY    61  50  67 NW7       29.84R
6HR MIN TEMP:  58; 6HR MAX TEMP:  67; 6HR PCP:  0.06;

GRAND FORKS AF PTCLDY    61  52  71 N9        29.85R
GRAND CITY NWS   N/A     61 N/A N/A N13         N/A
BUXTON         NOT AVBL
DEVILS LAKE    MOCLDY    66  43  42 NW28G33   29.87R
6HR MIN TEMP:  57; 6HR MAX TEMP:  70; 6HR PCP:  0.01;

FARGO          CLEAR     65  52  62 NW7       29.84S
6HR MIN TEMP:  58; 6HR MAX TEMP:  70; 6HR PCP:  0.07;

WAHPETON ARPT  CLEAR     63  46  55 NW10G16   29.87S
$$

 *****  WEATHER ACROSS CENTRAL AND WESTERN NORTH DAKOTA  *****

CITY           SKY/WX    TMP DP  RH WIND       PRES   REMARKS
JAMESTOWN      PTCLDY    65  41  41 NW18G28   29.92R
6HR MIN TEMP:  58; 6HR MAX TEMP:  69; 6HR PCP: TRACE;

BISMARCK       CLEAR     69  39  33 NW17G25   30.03R
6HR MIN TEMP:  69; 6HR MAX TEMP:  74;

MINOT          CLEAR     67  37  33 NW22G33   29.99R
6HR MIN TEMP:  67; 6HR MAX TEMP:  71; 6HR PCP: TRACE;

MINOT AFB      CLEAR     67  40  38 NW22G33   29.98R
6HR MIN TEMP:  66; 6HR MAX TEMP:  71;

GARRISON         N/A     68  38  33 NW23G31   30.02R
6HR MIN TEMP:  68; 6HR MAX TEMP:  73;

WILLISTON      CLEAR     69  34  27 NW18G28   30.10R
6HR MIN TEMP:  69; 6HR MAX TEMP:  74;

DICKINSON      PTCLDY    67  35  30 NW16G24   30.10R
6HR MIN TEMP:  67; 6HR MAX TEMP:  72;

HETTINGER      CLEAR     68  34  28 NW20G28   30.13R
6HR MIN TEMP:  68; 6HR MAX TEMP:  74;

$$

 *****  OTHER OBSERVATIONS NORTHEAST NORTH DAKOTA  *****

CITY           SKY/WX    TMP DP  RH WIND       PRES   REMARKS
WALHALLA         N/A     55  55 100 NW3       29.87R
LANGDON        MOCLDY    61  48  63 NW17      29.88R
CAVALIER       LGT RAIN  57  54  88 N3        29.86R
GRAFTON        MOCLDY    55  54  94 N13G21    29.85R THUNDER
CANDO          FAIR      64  43  45 NW21G26   29.91R
FORT TOTTEN      N/A     66  45  46 NW8       29.95
ROLLA          FAIR      59  43  55 NW17G25   29.93R
RUGBY          FAIR      64  41  42 NW20G32   29.94R
 ***** THE ABOVE OBSERVATIONS ARE NON NWS ARE NOT QUALITY
        CONTROLLED AND MAY MIS-REPORT RAIN FOR SNOW...
$$

 *****  OTHER OBSERVATIONS SOUTHEAST NORTH DAKOTA *****

CITY           SKY/WX    TMP DP  RH WIND       PRES   REMARKS
COOPERSTOWN    NOT AVBL
VALLEY CITY    MOCLDY    66  45  45 NW20      29.90R
OAKES            N/A     66  46  48 NW14      29.93R
GWINNER        CLEAR     68  46  45 NW12      29.92S
SHEYENNE NWR     N/A     69  47  44 NW13      29.95S
BUFFALO        NOT AVBL
WYNDMERE         N/A     66  50  55 NW7         N/A
 ***** THE ABOVE OBSERVATIONS ARE NON NWS ARE NOT QUALITY
       CONTROLLED AND MAY MIS-REPORT RAIN FOR SNOW...
$$

  *****  WEATHER ACROSS NORTHERN MINNESOTA  *****

CITY           SKY/WX    TMP DP  RH WIND       PRES   REMARKS
FLAG ISLAND    HVY RAIN  54  48  82 NW16      29.80R
WARROAD        DRIZZLE   52  46  82 NW8       29.82R
ROSEAU         RAIN      52  46  82 N5        29.82R
HALLOCK        RAIN      57  54  88 NW8       29.87R
THF RVR FALLS  PTCLDY    57  50  77 NW14      29.84R
6HR MIN TEMP:  55; 6HR MAX TEMP:  64; 6HR PCP:  0.14;

HALSTAD          N/A     58  50  73 NW10        N/A
FOSSTON        MOCLDY    55  48  76 NW16G22   29.84R
BAUDETTE       LGT RAIN  53  50  89 NW9       29.79R
6HR MIN TEMP:  53; 6HR MAX TEMP:  64; 6HR PCP:  0.06;

WASKISH        LGT RAIN  52  50  93 NW13G21   29.78R
CROOKSTON      PTCLDY    61  52  72 N10G17    29.85R
$$
  *****  WEATHER ACROSS CENTRAL AND WEST MINNESOTA  *****

CITY           SKY/WX    TMP DP  RH WIND       PRES   REMARKS
BEMIDJI        RAIN      53  50  90 W21G29    29.76R
PARK RAPIDS    PTCLDY    57  49  74 NW17      29.80R
6HR MIN TEMP:  54; 6HR MAX TEMP:  70; 6HR PCP:  0.14;

WADENA         CLEAR     57  48  72 W10G24    29.82S
DETROIT LAKES  CLEAR     59  50  72 NW12      29.85S
MOORHEAD       CLEAR     64  54  68 NW6       29.85S
FERGUS FALLS   CLEAR     63  48  59 NW10      29.86S
ELBOW LAKE     FAIR      61  51  69 NW14      29.86S
6HR MIN TEMP:  57; 6HR MAX TEMP:  71; 6HR PCP:  0.36;

MORRIS MN      CLEAR     63  54  72 NW8       29.88
STAPLES        CLEAR     57  48  72 NW15G26   29.82R
WHEATON        PTCLDY    63  50  63 W10       29.90S
$$
  *****  WEATHER ELSEWHERE ACROSS MINNESOTA  *****

CITY           SKY/WX    TMP DP  RH WIND       PRES   REMARKS
DULUTH         RAIN      56  51  84 NW15G25   29.69S
6HR MIN TEMP:  56; 6HR MAX TEMP:  70; 6HR PCP:  0.02;

INTRNTL FALLS  CLOUDY    55  50  83 NW7       29.72R
6HR MIN TEMP:  55; 6HR MAX TEMP:  61;

ELY            MOCLDY    54  50  87 NE3       29.70S
CLOQUET        RAIN      55  52  88 W8        29.71F
BRAINERD       MOCLDY    57  51  80 W13G24    29.79R
6HR MIN TEMP:  54; 6HR MAX TEMP:  68; 6HR PCP:  0.16;

HIBBING        LGT RAIN  55  53  93 W6        29.70R FOG
6HR MIN TEMP:  55; 6HR MAX TEMP:  68; 6HR PCP:  0.25;

ALEXANDRIA     CLEAR     60  50  69 NW16G30   29.87R
6HR MIN TEMP:  58; 6HR MAX TEMP:  72; 6HR PCP:  0.27;

SAINT CLOUD    PTCLDY    63  55  75 NW21G28   29.80R
6HR MIN TEMP:  61; 6HR MAX TEMP:  78; 6HR PCP:  0.18;

MINNEAPOLIS    CLOUDY    60  57  89 NW7       29.78S
6HR MIN TEMP:  59; 6HR MAX TEMP:  77; 6HR PCP:  0.24;

$$

  *****  WEATHER ACROSS SOUTH DAKOTA  *****

CITY           SKY/WX    TMP DP  RH WIND       PRES   REMARKS
SIOUX FALLS    PTCLDY    73  49  42 NW21G33   29.94R
6HR MIN TEMP:  73; 6HR MAX TEMP:  84;

BROOKINGS      NOT AVBL
WATERTOWN      PTCLDY    63  45  51 NW14      29.96R
6HR MIN TEMP:  63; 6HR MAX TEMP:  82;

HURON          CLEAR     71  40  32 NW17G26   29.98R
6HR MIN TEMP:  70; 6HR MAX TEMP:  85;

SISSETON         N/A     65  49  56 NW13      29.89S
ABERDEEN       PTCLDY    67  44  43 NW14      29.97S
MITCHELL       PTCLDY    74  45  35 N13G25    29.98R
PIERRE         CLEAR     74  34  23 NW14G26   30.03R
6HR MIN TEMP:  74; 6HR MAX TEMP:  83;

MOBRIDGE       PTCLDY    70  43  37 NW12      30.01R
RAPID CITY     CLEAR     72  38  29 N17G24    30.19R
6HR MIN TEMP:  72; 6HR MAX TEMP:  78;

$$

  *****  SOME WEATHER IN NEARBY STATES *****

CITY           SKY/WX    TMP DP  RH WIND       PRES   REMARKS
GLASGOW MT     SUNNY     71  33  24 NW14      30.16R
6HR MIN TEMP:  68; 6HR MAX TEMP:  74;

GREAT FALLS MT SUNNY     71  42  35 E9        30.20F
6HR MIN TEMP:  68; 6HR MAX TEMP:  74;

CHEYENNE WY    SUNNY     73  43  33 NE9       30.29R
6HR MIN TEMP:  73; 6HR MAX TEMP:  79;

SCOTTSBLUFF NE CLEAR     79  44  28 N12       30.18R
6HR MIN TEMP:  78; 6HR MAX TEMP:  86;

OMAHA NE       PTCLDY    78  59  51 NW5       29.92S
6HR MIN TEMP:  78; 6HR MAX TEMP:  86;

DES MOINES IA  PTCLDY    78  58  49 W9        29.86R
6HR MIN TEMP:  78; 6HR MAX TEMP:  85;

DAVENPORT IA   PTCLDY    72  66  81 SW7       29.82S
6HR MIN TEMP:  72; 6HR MAX TEMP:  79; 6HR PCP: TRACE;

CHICAGO IL     PTCLDY    73  63  70 SW5       29.80R
6HR MIN TEMP:  72; 6HR MAX TEMP:  77; 6HR PCP:  0.08;

EAU CLAIRE WI  CLOUDY    68  55  63 CALM      29.72S
6HR MIN TEMP:  68; 6HR MAX TEMP:  77;

LA CROSSE WI   PTCLDY    71  58  63 SW5       29.72F
6HR MIN TEMP:  71; 6HR MAX TEMP:  80;

$$

  *****  SOME NATIONAL WEATHER *****

CITY           SKY/WX    TMP DP  RH WIND       PRES   REMARKS
LA GUARDIA NY  PTCLDY    70  61  73 S9        30.11F



USA.gov is the U.S. government's official web portal to all federal, state and local government web resources and services.